User: anonymous   Login
Location: Martin
(32.0982°N, 93.2193°W)
Time: 05:43:08
(UTC+00:00)
Language:

Envisat - Orbit

View from above orbital plane
View from above orbital plane
View from above satellite
View from above satellite

Ground track
Ground track

The orbit is defined by the following mean orbital elements,

1 27386U          26156.65925344 +.00000000 +00000-0 +47268-4 0 00008
2 27386  98.3829 108.2352 0001350  91.9876  80.9361 14.39061995    01
Epoch (UTC): 05 June 2026 15:49:19
Eccentricity: 0.0001350
inclination: 98.3829°
perigee height: 761 km
apogee height: 763 km
right ascension of ascending node: 108.2352°
argument of perigee: 91.9876°
revolutions per day: 14.39061995
mean anomaly at epoch: 80.9361°

The dashed part of the orbit path shows where the satellite is in the earth's shadow,  

DLR